Starlink 30715

operational
NORAD ID: 57941 Int'l Des: 2023-148 Owner: SPXS Country: US Constellation: starlink
LEOCIRCULAR

About Starlink 30715

Description loading...

Live Position

Loading 3D Globe...

Upcoming Passes

Altitude History

Altitude vs Time

uPlot chart will show altitude changes over time

Two-Line Element Set

1 57941U 23148G 26048.55470442 -.00002245 00000-0 -63711-4 0 9992
2 57941 53.1601 107.5083 0001397 110.0788 250.0363 15.30183917135481
Epoch: Feb 17, 2026 • Age: 29 hours

Current Status

Altitude 480.8 km
Velocity 7.63 km/s
Sub-Earth Point 52.06°N, 118.02°E
Launch Date Sep 25, 2023
Age 2.4 years
Type internet

Technical Details

Classification Payload
Mass 730.00 kg
Dry Mass 700.00 kg
Total Mass 730.00 kg
Length 0.30 m
Diameter 4.10 m
Span 29.00 m
Shape Box + pan
Manufacturer SPXS
Bus Type Starlink V2M
Phase Status In Orbit
Owner/State SPXS/US

Large Constellations

Loading constellations...